Other Public Products
Issued by NWS Charleston, SC

Current Version | Previous Version | Graphics & Text | Print | Product List | Glossary On
Versions: 1 2 3 4 5 6 7 8 9 10 11 12 13 14 15 16 17 18 19 20 21 22 23 24 25 26 27 28 29 30 31 32 33 34 35 36 37 38 39 40 41 42 43 44 45 46 47 48 49 50
000
FPUS82 KCHS 241112
OPUCHS

TEST...KCHS/KSAV Gateway Observations...TEST
National Weather Service Charleston SC
700 AM EDT MON JUL 24 2017

NOTE: "fair" indicates few or no clouds below 12,000 feet with no
significant weather and/or obstructions to visibility.

SCZ050-WAZ558-NCZ071-TXZ119-213-PAZ071-DCZ001-FLZ074-172-MI076-
NYZ176-178-MAZ016-IL014-TNZ027-NJZ106-GAZ044-MD014-241200-

...Gateway Observations for Charleston International...

CITY           SKY/WX    TMP DP  RH WIND       PRES   REMARKS
Chas Airport   MOCLDY    78  73  84 SW10      29.95R
Seattle        CLEAR     60  52  74 NE5       30.04S
Charlotte      CLOUDY    73  69  87 S9        29.91R
Dallas DFW     CLOUDY    75  73  93 S7        29.87F
Dallas Love    CLOUDY    75  73  93 SE10      29.89F
Philladelphia  CLOUDY    73  71  93 E5        29.74R
Wash National  LGT RAIN  77  73  87 SW8       29.77R
Baltimore      CLOUDY    74  74 100 SW7       29.74R
Miami          LGT RAIN  82  72  71 SE6       30.05R
Detroit        MOCLDY    65  63  93 NW8       29.86R
Newark         CLOUDY    70  68  93 NE9       29.76S
Laguardia      RAIN      70  68  93 E8        29.77R FOG
J F K          LGT RAIN  70  70 100 E9        29.77S
Boston Logan   LGT RAIN  64  60  87 E9        29.94R
Ft. Lauderdale MOCLDY    80  77  90 CALM      30.04R
Chicago O`Hare MOCLDY    67  60  78 N10       29.97R
Chicago Midway MOCLDY    69  60  73 N15       29.96R
Houston Bush   MOCLDY    81  76  84 SW5       29.94R
Houston Hobby  CLOUDY    81  76  84 SW5       29.94R
Nashville      MOCLDY    70  68  93 SW3       29.94R
Atlanta        CLOUDY    76  72  87 NW9       29.98R

$$

GAZ044-118-TXZ119-213-NCZ071-DCZ001-MDZ014-506-PAZ021-071-NJZ106-
NYZ176-178-MAZ106-OHZ011-021-055-MIZ076-KYZ091-ILZ014-INZ047-
MNZ060-ONZ431-241200-

...Gateway Observations for Savannah International...

CITY           SKY/WX    TMP DP  RH WIND       PRES   REMARKS
Savannah Arpt  MOCLDY    77  74  90 SW8       29.98R
Atlanta        CLOUDY    76  72  87 NW9       29.98R
Charlotte      CLOUDY    73  69  87 S9        29.91R
Dallas DFW     CLOUDY    75  73  93 S7        29.87F
Houston Bush   MOCLDY    81  76  84 SW5       29.94R
Wash National  LGT RAIN  77  73  87 SW8       29.77R
Wash Dulles    CLOUDY    74  71  91 CALM      29.77R
Baltimore      CLOUDY    74  74 100 SW7       29.74R
Philadelphia   CLOUDY    73  71  93 E5        29.74R
Newark         CLOUDY    70  68  93 NE9       29.76S
Laguardia      RAIN      70  68  93 E8        29.77R FOG
J F K          LGT RAIN  70  70 100 E9        29.77S
Boston         LGT RAIN  64  60  87 E9        29.94R
Pittsburg      MOCLDY    67  66  97 W6        29.85R
Akron          PTCLDY    66  63  90 SW3       29.84R
Cleveland      CLOUDY    71  67  87 CALM      29.85R
Cincinnati     PTCLDY    70  70 100 W7        29.89R
Columbus       PTCLDY    66  66 100 SW3       29.86R
Detroit        MOCLDY    65  63  93 NW8       29.86R
Chicago O`Hare MOCLDY    67  60  78 N10       29.97R
Minneapolis    CLEAR     61  55  81 E7        30.05S
Indianapolis   PTCLDY    68  64  87 N3        29.89R
Toronto Canada MOCLDY    66  57  72 N6        29.74R

$$




USA.gov is the U.S. government's official web portal to all federal, state and local government web resources and services.